Home > Weather > Kassel > Past weeks

Flag for Germany Weather for the Past 2 Weeks in Kassel, Hesse, Germany

Now
46 °F

Overcast.


Feels Like: 42 °F
Forecast: 41 / 48 °F
Wind: 8 mph from South

Location: Fritzlar Airport

Current Time: Feb 6, 2016 at 12:08:13 AM

Latest Report: Feb 5, 2016 at 11:20 PM


Visibility: N/A

Pressure: 30.12 "Hg

Humidity: 87%

Dew point: 43 °F

Location of KasselLocation

Historic Weather in Kassel — Graph

°F

Kassel Temperature Yesterday

Maximum temperature yesterday: 46 °F (at 10:20 PM)
Minimum temperature yesterday: 36 °F (at 2:20 AM)
Average temperature yesterday: 40 °F

High & Low Weather Summary for the Past Weeks

 TemperatureHumidityPressure
High54 °F (Feb 1, 10:20 AM)100% (Jan 24, 3:20 AM)30.57 "Hg (Jan 24, 3:20 AM)
Low12 °F (Jan 22, 10:20 AM)50% (Jan 28, 2:20 PM)29.71 "Hg (Jan 30, 3:20 PM)
Average41 °F84%30.15 "Hg
* Reported Jan 21 10:20 PM — Feb 5 10:20 PM, Kassel, Weather by CustomWeather, © 2016

Note: Actual official high and low records may vary slightly from our data, if they occured in-between our weather recording intervals... More about our weather records

Advertising

Kassel Weather History for the Previous 24 Hours

 ConditionsComfort  
Time TempWeatherWind HumidityBarometerVisibility
10:20 PM
Fri, Feb 5
46 °FPassing clouds.9 mph87%30.15 "HgN/A
9:20 PM45 °FPassing clouds.8 mph93%30.15 "HgN/A
8:20 PM45 °FPartly cloudy.8 mph93%30.18 "HgN/A
7:20 PM45 °FPassing clouds.10 mph93%30.18 "Hg6 mi
6:20 PM43 °FDrizzle. Fog.12 mph100%30.18 "Hg3 mi
5:20 PM43 °FDrizzle. Fog.8 mph93%30.18 "Hg2 mi
4:50 PM43 °FDrizzle. Fog.5 mph93%30.18 "Hg3 mi
4:20 PM43 °FDrizzle. Fog.7 mph93%30.18 "Hg3 mi
3:50 PM43 °FPartly sunny.7 mph93%30.21 "Hg4 mi
3:20 PM43 °FPartly sunny.5 mph93%30.21 "Hg5 mi
2:20 PM41 °FPartly sunny.7 mph93%30.21 "Hg5 mi
1:50 PM41 °FLight rain. Partly sunny.7 mph93%30.21 "Hg5 mi
1:20 PM41 °FLight rain. Fog.5 mph87%30.24 "Hg3 mi
12:20 PM39 °FLow clouds.7 mph93%30.24 "Hg6 mi
12:00 PM39 °FLow clouds.1 mph87%30.27 "HgN/A
11:20 AM39 °FLight rain. Partly sunny.5 mph87%30.27 "HgN/A
11:01 AM37 °FLight rain. Broken clouds.7 mph93%30.27 "HgN/A
10:20 AM37 °FLight rain. Broken clouds.2 mph87%30.30 "HgN/A
9:20 AM36 °FDrizzle. Mostly cloudy.6 mph87%30.30 "HgN/A
8:20 AM37 °FDrizzle. Mostly cloudy.2 mph81%30.30 "HgN/A
7:20 AM36 °FPassing clouds.8 mph87%30.30 "HgN/A
6:20 AM36 °FPassing clouds.1 mph87%30.30 "HgN/A
5:20 AM36 °FPassing clouds.2 mph87%30.30 "HgN/A
4:20 AM36 °FPassing clouds.3 mph87%30.30 "HgN/A
3:20 AM36 °FPassing clouds.6 mph93%30.30 "HgN/A
2:20 AM36 °FPartly cloudy.3 mph87%30.27 "HgN/A
1:20 AM37 °FPassing clouds.3 mph87%30.27 "HgN/A
12:20 AM37 °FPartly cloudy.1 mph81%30.24 "HgN/A
Weather by CustomWeather, © 2016

See weather overviewHow to use our weather pages